This demonstration page uses our WeatherBlox Daily Observations layout. Learn more.

Left ArrowRight Arrow

47.50024, -111.30081

Hourly Observations for January 21, 2020

Temp ( °F °C ) Dew Point ( °F °C ) Humidity (%) Winds ( mph kmh ) Pressure ( in mb ) Visibility ( mi km ) Precip ( " mm )
12:53 am 00:53 Clear 40 4.4 18 -7.8 41 41 SW 13 20 29.90 1013 10 16 0.00 0.00
1:53 am 01:53 Mostly Cloudy 41 5 18 -7.8 39 39 SW 14 22 29.88 1012 10 16 0.00 0.00
2:53 am 02:53 Clear 38 3.3 17 -8.3 43 43 SSW 14 22 29.87 1012 10 16 0.00 0.00
3:53 am 03:53 Mostly Cloudy 38 3.3 18 -7.8 44 44 SSW 15 24 29.86 1011 10 16 0.00 0.00
4:53 am 04:53 Mostly Cloudy 34 1.1 17 -8.3 50 50 SW 9 15 29.87 1012 10 16 0.00 0.00
5:53 am 05:53 Cloudy 37 2.8 18 -7.8 46 46 SW 13 20 29.85 1011 10 16 0.00 0.00
6:53 am 06:53 Clear 38 3.3 19 -7.2 46 46 SSW 16 26 29.82 1010 10 16 0.00 0.00
7:53 am 07:53 Clear 41 5 20 -6.7 43 43 SW 17 28 29.81 1010 10 16 0.00 0.00
8:53 am 08:53 Sunny 38 3.3 20 -6.7 48 48 SW 16 26 29.83 1010 10 16 0.00 0.00
9:53 am 09:53 Sunny 43 6.1 22 -5.6 43 43 SSW 16 26 29.81 1010 10 16 0.00 0.00
10:53 am 10:53 Sunny 49 9.4 23 -5 36 36 SW 17 28 29.79 1009 10 16 0.00 0.00
11:53 am 11:53 Sunny 51 10.6 24 -4.4 35 35 SW 20 31 29.77 1008 10 16 0.00 0.00
12:53 pm 12:53 Sunny 50 10 23 -5 35 35 SW 16 26 29.75 1008 10 16 0.00 0.00
1:53 pm 13:53 Sunny 49 9.4 24 -4.4 38 38 SW 20 31 29.73 1007 10 16 0.00 0.00
2:53 pm 14:53 Mostly Sunny 51 10.6 24 -4.4 35 35 SW 16 26 29.72 1007 10 16 0.00 0.00
3:53 pm 15:53 Mostly Sunny 48 8.9 23 -5 37 37 SSW 13 20 29.73 1007 10 16 0.00 0.00
4:53 pm 16:53 Sunny 43 6.1 23 -5 45 45 SW 14 22 29.75 1008 10 16 0.00 0.00
5:53 pm 17:53 Mostly Clear 39 3.9 22 -5.6 50 50 SSW 12 19 29.75 1008 10 16 0.00 0.00
6:53 pm 18:53 Clear 38 3.3 22 -5.6 52 52 SW 10 17 29.75 1008 10 16 0.00 0.00
7:53 pm 19:53 Mostly Cloudy 41 5 23 -5 49 49 WSW 10 17 29.73 1007 10 16 0.00 0.00
8:53 pm 20:53 Mostly Cloudy 36 2.2 22 -5.6 57 57 SW 7 11 29.76 1008 10 16 0.00 0.00
9:53 pm 21:53 Mostly Cloudy 38 3.3 23 -5 55 55 WSW 9 15 29.73 1007 10 16 0.00 0.00
10:53 pm 22:53 Cloudy 40 4.4 24 -4.4 53 53 SW 12 19 29.71 1006 10 16 0.00 0.00
11:53 pm 23:53 Cloudy with Light Rain 39 3.9 31 -0.6 73 73 W 14 22 29.74 1007 10 16 0.01 0.25

Powered by AerisWeather